Regional Weather Roundup
Issued by NWS

Home | Current Version | Previous Version | Graphics & Text | Print | Product List | Glossary Off
Versions: 1 2 3 4 5 6 7 8 9 10 11 12 13 14 15 16 17 18 19 20 21 22 23 24 25 26 27 28 29 30 31 32 33 34 35 36 37 38 39 40 41 42 43 44 45 46 47 48 49 50

000
ASUS43 KMKX 171621
RWRWI

WISCONSIN REGIONAL WEATHER ROUNDUP
NATIONAL WEATHER SERVICE MILWAUKEE/SULLIVAN WI
1100 AM CDT TUE OCT 17 2017

NOTE: "FAIR" INDICATES FEW OR NO CLOUDS BELOW 12,000 FEET WITH NO
SIGNIFICANT WEATHER AND/OR OBSTRUCTIONS TO VISIBILITY.

WIZ001-002-006>008-014>016-023>028-171700-
NORTHWEST WISCONSIN

CITY           SKY/WX    TMP DP  RH WIND       PRES   REMARKS
SUPERIOR ARPT  MOSUNNY   59  43  55 SW6       29.98S
ASHLAND        SUNNY     62  43  49 SW8       29.99S
HAYWARD        SUNNY     57  42  57 SW5       30.02R
SIREN          SUNNY     58  42  54 S3        30.01S
CUMBERLAND     CLOUDY    55  43  62 SE3       30.02S
RICE LAKE      CLOUDY    56  43  62 CALM      30.04F
CHETEK         CLOUDY    56  45  65 CALM      30.04S
LADYSMITH      SUNNY     57  44  61 CALM      30.05S
EAU CLAIRE     SUNNY     57  43  59 S3        30.04S
MENOMONIE      SUNNY     58  44  59 CALM      30.04S
NEW RICHMOND   SUNNY     58  42  56 CALM      30.03S
OSCEOLA        SUNNY     57  44  61 SE3       30.05F
$$

WIZ003>005-009-010-017-018-171700-
NORTH CENTRAL WISCONSIN

CITY           SKY/WX    TMP DP  RH WIND       PRES   REMARKS
MANITOWISH WTR SUNNY     57  41  55 CALM      30.02R
ARBOR VITAE    SUNNY     58  44  59 W3        30.02S
WOODRUFF       SUNNY     58  44  59 W3        30.02S
RHINELANDER    SUNNY     57  41  55 SW5       30.04S
EAGLE RIVER    SUNNY     55  39  54 SW3       30.02S
LAND O LAKES   SUNNY     59  40  49 SW5       30.03S
PHILLIPS       SUNNY     55  42  60 CALM      30.03S
TOMAHAWK       SUNNY     56  42  58 CALM      30.04S
MEDFORD        SUNNY     57  42  55 SW3       30.04S
MERRILL        CLOUDY    57  43  58 CALM      30.06R
$$

WIZ029-030-035-036-043>047-171700-
CENTRAL WISCONSIN

CITY           SKY/WX    TMP DP  RH WIND       PRES   REMARKS
WAUSAU         SUNNY     57  43  59 S5        30.04R
MOSINEE        MOSUNNY   57  45  62 SW6       30.06S
MARSHFIELD     SUNNY     59  43  55 SW7       30.05S
STEVENS POINT  SUNNY     57  41  55 W5        30.07R
WAUPACA        SUNNY     62  44  51 W7        30.06S
WAUTOMA        SUNNY     60  44  55 W9        30.08S
WISC RAPIDS    SUNNY     59  44  57 VRB5      30.08R
CAMP DOUGLAS   MOSUNNY   61  45  55 SW10      30.07S
$$

WIZ011>013-019>022-031-037>040-048>050-171700-
NORTHEAST WISCONSIN

CITY           SKY/WX    TMP DP  RH WIND       PRES   REMARKS
ANTIGO         CLOUDY    55  42  61 W3        30.05S
SHAWANO        SUNNY     61  44  53 W7        30.05R
OCONTO         MOSUNNY   58  42  55 SW8       30.03S
STURGEON BAY   MOSUNNY   58  43  57 W13       30.03S
GREEN BAY      SUNNY     60  46  59 W10       30.06S
MANITOWOC      SUNNY     60  43  53 W16       30.06S
APPLETON       SUNNY     55  39  54 SW9       30.05S
CLINTONVILLE   SUNNY     59  43  55 SW7       30.05S
OSHKOSH        SUNNY     60  44  55 VRB5      30.07S
$$

WIZ032>034-041-042-053>061-171700-
SOUTHWEST WISCONSIN

CITY           SKY/WX    TMP DP  RH WIND       PRES   REMARKS
LA CROSSE      SUNNY     60  45  57 S9        30.08S
SPARTA         SUNNY     59  44  56 SW5       30.08S
VIROQUA        SUNNY     59  44  58 SW8       30.10R
BOSCOBEL       SUNNY     63  43  48 SW7       30.11S
PRAIRIE DU CHI SUNNY     61  42  49 SW8       30.11S
PLATTEVILLE    SUNNY     61  44  54 SW15      30.14S
$$

WIZ056-057-062-063-064-067-068-171700-
SOUTH CENTRAL WISCONSIN

CITY           SKY/WX    TMP DP  RH WIND       PRES   REMARKS
REEDSBURG      SUNNY     58  44  58 W12       30.10S
BARABOO/DELLS  SUNNY     59  42  53 W10       30.09S
LONE ROCK      SUNNY     61  45  55 SW8       30.11S
MINERAL POINT  SUNNY     61  43  51 SW12      30.12S
MADISON        MOSUNNY   60  43  53 SW8       30.11S
MIDDLETON      SUNNY     62  44  51 W12       30.12R
WATERTOWN      SUNNY     61  44  52 SW10G17   30.11S
MONROE         SUNNY     61  41  48 SW22G28   30.13F
JANESVILLE     SUNNY     63  43  48 W12G17    30.13F
$$

WIZ051-052-058>065-066-070>072-171700-
SOUTHEAST WISCONSIN

CITY           SKY/WX    TMP DP  RH WIND       PRES   REMARKS
MILWAUKEE      MOSUNNY   64  42  44 W18G25    30.12R
WAUKESHA       SUNNY     59  43  55 W14       30.13S
MILWAUKEE/TIMM SUNNY     63  37  39 W14G24    30.11S
RACINE         SUNNY     64  42  44 W14G24    30.13F
BURLINGTON     SUNNY     65  44  47 SW16G24   30.12F
KENOSHA        SUNNY     64  42  44 SW15G28   30.14S
FOND DU LAC    SUNNY     61  42  49 SW9       30.09S
SHEBOYGAN      SUNNY     61  45  55 W12       30.07S
WEST BEND      SUNNY     59  41  51 W9G16     30.10S
JUNEAU         SUNNY     59  43  55 SW15      30.12R
$$

LSZ147-162-171700-
LAKE SUPERIOR

STATION/POSITION TIME  TEMP    WIND        PRES    WAVE
                       AIR SEA DIR/SP/G            HT/PER
                 (UTC) (F)     (DEG/KT/KT) (MB)    (FT/S)
W MID LAKE BUOY  1550   53 53              1014.7R   2/ 5
DEVILS ISLAND    1600   54     240/ 12/ 14 1015.1F
SAXON HARBOR     1540   62     210/  5/  6 1015.2R
$$

LMZ867-665-643>646-171700-
LAKE MICHIGAN

STATION/POSITION TIME  TEMP    WIND        PRES    WAVE
                       AIR SEA DIR/SP/G            HT/PER
                 (UTC) (F)     (DEG/KT/KT) (MB)    (FT/S)
S GREEN BAY BUOY 1600   56 58  220/ 14/ 16 1016.6
N MID LAKE BUOY  1550   56 59  250/ 14/ 16 1016.7R   5/ 7
NORTHPORT PIER   1540   57     260/  5/ 10 1015.6F
KEWAUNEE LAKESHO 1554   60     270/ 11/ 17 1016.3S
SHEBOYGAN LAKESH 1600   60     260/ 14/ 16 1018.1R
PORT WASHINGTON  1530   61     260/ 11/ 20 1019.6R
MILWAUKEE LAKESH 1600   63     260/ 14/ 19   N/A
S MID LAKE BUOY  1550   59 61  250/ 21/ 25 1020.5S   6/ 6
KENOSHA   LAKESH 1600   63     250/ 15/ 20 1020.3
$$

TC  - TEMPERATURE IN CELSIUS
VSB - VISIBILITY IN STATUTE MILES
WCI - WIND CHILL INDEX
HX  - HEAT INDEX





USA.gov is the U.S. government's official web portal to all federal, state and local government web resources and services.